Location: Владивосток
(43.1151°N, 131.8856°E)
Time: 10:45:45
(UTC+10:00)

Tiangong - Visible Passes

Search period start: 27 January 2022 00:00
Search period end: 06 February 2022 00:00
Orbit: 382 x 387 km, 41.5° (Epoch: 26 January)

Date Brightness Start Highest point End Pass type
(mag) Time Alt. Az. Time Alt. Az. Time Alt. Az.
27 Jan 4.1 20:43:12 10° SW 20:43:47 14° SW 20:43:47 14° SW visible
28 Jan 2.5 19:43:51 10° SW 19:46:31 25° SSE 19:47:01 24° SE visible
29 Jan 2.5 20:20:15 10° WSW 20:22:23 35° SW 20:22:23 35° SW visible
30 Jan 2.1 19:20:39 10° SW 19:23:35 36° SSE 19:25:30 18° ESE visible
30 Jan 4.3 20:57:05 10° W 20:57:42 15° W 20:57:42 15° W visible
31 Jan 1.2 19:57:17 10° WSW 20:00:25 60° S 20:00:46 55° SE visible
01 Feb 1.7 18:57:31 10° WSW 19:00:36 49° SSE 19:03:41 10° E visible
01 Feb 2.9 20:34:09 10° W 20:36:01 31° WSW 20:36:01 31° WSW visible
02 Feb 1.2 19:34:16 10° W 19:37:26 65° S 19:39:02 26° ESE visible
02 Feb 4.7 21:11:05 10° W 21:11:14 11° W 21:11:14 11° W visible
03 Feb 1.5 20:11:08 10° W 20:14:14 53° S 20:14:15 53° S visible
04 Feb 1.4 19:11:11 10° W 19:14:20 63° S 19:17:19 11° ESE visible
04 Feb 3.7 20:48:07 10° W 20:49:32 20° WSW 20:49:32 20° WSW visible
05 Feb 2.1 19:48:02 10° W 19:51:03 40° SSW 19:52:38 22° SE visible
